Time,TemperatureF,DewpointF,PressureIn,WindDirection,WindDirectionDegrees,WindSpeedMPH,WindSpeedGustMPH,Humidity,HourlyPrecipIn,Conditions,Clouds,dailyrainin,SoftwareType,DateUTC
2013-05-13 00:01:00,53.0,-99.9,30.06,NNW,340,16.0,-999.0,-999,-99.99,,,-99.99,,2013-05-13 07:01:00,
2013-05-13 00:02:00,52.0,-99.9,30.06,NNW,340,18.0,-999.0,-999,-99.99,,,-99.99,,2013-05-13 07:02:00,
2013-05-13 00:52:00,52.0,-99.9,30.06,NNW,340,18.0,-999.0,-999,-99.99,,,-99.99,,2013-05-13 07:52:00,
2013-05-13 01:52:00,52.0,-99.9,30.06,NNW,340,18.0,-999.0,-999,-99.99,,,-99.99,,2013-05-13 08:52:00,
2013-05-13 02:01:00,52.0,-99.9,30.06,NNW,340,18.0,-999.0,-999,-99.99,,,-99.99,,2013-05-13 09:01:00,
2013-05-13 02:02:00,52.0,-99.9,30.05,NNW,340,20.0,-999.0,-999,-99.99,,,-99.99,,2013-05-13 09:02:00,
2013-05-13 02:52:00,52.0,-99.9,30.05,NNW,340,20.0,-999.0,-999,-99.99,,,-99.99,,2013-05-13 09:52:00,
2013-05-13 03:02:00,52.0,-99.9,30.05,NNW,340,20.0,-999.0,-999,-99.99,,,-99.99,,2013-05-13 10:02:00,
2013-05-13 03:53:00,52.0,-99.9,30.05,NNW,340,20.0,-999.0,-999,-99.99,,,-99.99,,2013-05-13 10:53:00,
2013-05-13 04:02:00,53.0,-99.9,30.05,NNW,340,18.0,-999.0,-999,-99.99,,,-99.99,,2013-05-13 11:02:00,
2013-05-13 04:52:00,53.0,-99.9,30.05,NNW,340,18.0,-999.0,-999,-99.99,,,-99.99,,2013-05-13 11:52:00,
2013-05-13 05:42:00,53.0,-99.9,30.03,North,350,20.0,-999.0,-999,-99.99,,,-99.99,,2013-05-13 12:42:00,
2013-05-13 05:52:00,53.0,-99.9,30.03,North,350,20.0,-999.0,-999,-99.99,,,-99.99,,2013-05-13 12:52:00,
2013-05-13 06:01:00,53.0,-99.9,30.03,North,350,20.0,-999.0,-999,-99.99,,,-99.99,,2013-05-13 13:01:00,
2013-05-13 06:02:00,53.0,-99.9,30.05,North,360,13.0,-999.0,-999,-99.99,,,-99.99,,2013-05-13 13:02:00,
2013-05-13 06:52:00,53.0,-99.9,30.05,North,360,13.0,-999.0,-999,-99.99,,,-99.99,,2013-05-13 13:52:00,
2013-05-13 07:42:00,53.0,-99.9,30.09,North,10,9.0,-999.0,-999,-99.99,,,-99.99,,2013-05-13 14:42:00,
2013-05-13 07:52:00,53.0,-99.9,30.09,North,10,9.0,-999.0,-999,-99.99,,,-99.99,,2013-05-13 14:52:00,
2013-05-13 08:01:00,53.0,-99.9,30.09,North,10,9.0,-999.0,-999,-99.99,,,-99.99,,2013-05-13 15:01:00,
2013-05-13 08:02:00,52.0,-99.9,30.10,NNW,340,7.0,-999.0,-999,-99.99,,,-99.99,,2013-05-13 15:02:00,
2013-05-13 08:53:00,52.0,-99.9,30.10,NNW,340,7.0,-999.0,-999,-99.99,,,-99.99,,2013-05-13 15:53:00,
2013-05-13 09:02:00,53.0,-99.9,30.12,NNW,340,13.0,-999.0,-999,-99.99,,,-99.99,,2013-05-13 16:02:00,
2013-05-13 09:53:00,53.0,-99.9,30.12,NNW,340,13.0,-999.0,-999,-99.99,,,-99.99,,2013-05-13 16:53:00,
2013-05-13 10:02:00,53.0,-99.9,30.14,North,360,13.0,-999.0,-999,-99.99,,,-99.99,,2013-05-13 17:02:00,
2013-05-13 10:54:00,53.0,-99.9,30.14,North,360,13.0,-999.0,-999,-99.99,,,-99.99,,2013-05-13 17:54:00,
2013-05-13 11:52:00,53.0,-99.9,30.14,NNW,340,20.0,-999.0,-999,-99.99,,,-99.99,,2013-05-13 18:52:00,
2013-05-13 12:01:00,53.0,-99.9,30.14,NNW,340,20.0,-999.0,-999,-99.99,,,-99.99,,2013-05-13 19:01:00,
2013-05-13 12:02:00,54.0,-99.9,30.12,NNW,340,16.0,-999.0,-999,-99.99,,,-99.99,,2013-05-13 19:02:00,
2013-05-13 12:53:00,54.0,-99.9,30.12,NNW,340,16.0,-999.0,-999,-99.99,,,-99.99,,2013-05-13 19:53:00,
2013-05-13 13:02:00,54.0,-99.9,30.08,NNW,330,13.0,-999.0,-999,-99.99,,,-99.99,,2013-05-13 20:02:00,
2013-05-13 13:53:00,54.0,-99.9,30.08,NNW,330,13.0,-999.0,-999,-99.99,,,-99.99,,2013-05-13 20:53:00,
2013-05-13 14:02:00,54.0,-99.9,30.05,NNW,330,18.0,-999.0,-999,-99.99,,,-99.99,,2013-05-13 21:02:00,
2013-05-13 14:53:00,54.0,-99.9,30.05,NNW,330,18.0,-999.0,-999,-99.99,,,-99.99,,2013-05-13 21:53:00,
2013-05-13 15:02:00,54.0,-99.9,30.03,NNW,340,22.0,-999.0,-999,-99.99,,,-99.99,,2013-05-13 22:02:00,
2013-05-13 15:52:00,54.0,-99.9,30.03,NNW,340,22.0,-999.0,-999,-99.99,,,-99.99,,2013-05-13 22:52:00,
2013-05-13 16:02:00,54.0,-99.9,30.00,NNW,330,25.0,-999.0,-999,-99.99,,,-99.99,,2013-05-13 23:02:00,
2013-05-13 16:54:00,54.0,-99.9,30.00,NNW,330,25.0,-999.0,-999,-99.99,,,-99.99,,2013-05-13 23:54:00,
2013-05-13 17:02:00,54.0,-99.9,29.98,NNW,330,27.0,-999.0,-999,-99.99,,,-99.99,,2013-05-14 00:02:00,
2013-05-13 17:52:00,54.0,-99.9,29.98,NNW,330,27.0,-999.0,-999,-99.99,,,-99.99,,2013-05-14 00:52:00,
2013-05-13 18:02:00,54.0,-99.9,29.97,NNW,330,31.0,-999.0,-999,-99.99,,,-99.99,,2013-05-14 01:02:00,
2013-05-13 18:53:00,54.0,-99.9,29.97,NNW,330,31.0,-999.0,-999,-99.99,,,-99.99,,2013-05-14 01:53:00,
2013-05-13 19:52:00,54.0,-99.9,29.97,NNW,330,29.0,-999.0,-999,-99.99,,,-99.99,,2013-05-14 02:52:00,
2013-05-13 20:01:00,54.0,-99.9,29.97,NNW,330,29.0,-999.0,-999,-99.99,,,-99.99,,2013-05-14 03:01:00,
2013-05-13 20:02:00,54.0,-99.9,29.99,NNW,340,25.0,-999.0,-999,-99.99,,,-99.99,,2013-05-14 03:02:00,
2013-05-13 20:53:00,54.0,-99.9,29.99,NNW,340,25.0,-999.0,-999,-99.99,,,-99.99,,2013-05-14 03:53:00,
2013-05-13 21:02:00,54.0,-99.9,30.00,NNW,330,20.0,-999.0,-999,-99.99,,,-99.99,,2013-05-14 04:02:00,
2013-05-13 21:53:00,54.0,-99.9,30.00,NNW,330,20.0,-999.0,-999,-99.99,,,-99.99,,2013-05-14 04:53:00,
2013-05-13 22:02:00,53.0,-99.9,30.02,NNW,330,13.0,-999.0,-999,-99.99,,,-99.99,,2013-05-14 05:02:00,
2013-05-13 22:53:00,53.0,-99.9,30.02,NNW,330,13.0,-999.0,-999,-99.99,,,-99.99,,2013-05-14 05:53:00,
2013-05-13 23:02:00,53.0,-99.9,30.00,NNW,340,13.0,-999.0,-999,-99.99,,,-99.99,,2013-05-14 06:02:00,
2013-05-13 23:52:00,53.0,-99.9,30.00,NNW,340,13.0,-999.0,-999,-99.99,,,-99.99,,2013-05-14 06:52:00,